STARLINK-37184, 68393

Orbit data source: Space-Track

STARLINK-37184, 68393 is a payload satellite owned by SpaceX/Seattle (US) in SSO that was launched on Thu, 26 Mar 2026 UTC via an FALCON 9 launch vehicle from the Air Force Western Test Range (AFWTR). Payload-class satellites include a variety of spacecraft equipped with specific instruments for various scientific and technological missions. These include communications satellites like Starlink; space stations such as the ISS; scientific satellites like the Hubble; Earth observation satellites from companies like Planet Labs, Umbra, and HawkEye 360; GPS; miniature CubeSats for education and research; and military/defense satellites.

Loading next visibility...
Identifier
68393, 2026-063P
Orbit
SSO
Country
Flag of USUS
Related business
Manufacturer
SpaceX/Seattle
Mission
Operational spacecraft
Bus & Motor
STARLINK V2MO, Unknown motor
Mass
575 kg wet, ~530 kg dry
Launch date (UTC)
2026-03-26 (1 week ago)
Launch vehicle
FALCON 9
Launch site
Air Force Western Test Range (AFWTR)
Object type
Payload
Rocket body
Debris
Shape & HBR
Unknown shape, 17.7 m
Radar Cross Section
RCS unknown

Expand to show TLE details & history
Last TLE update: 5 hours ago

TLE from 5 hours ago
0 STARLINK-37184
1 68393U 26063P   26095.58336806 -.01904159  00000-0 -79520-2 0  9993
2 68393  97.2817 236.6090 0001624  77.0853 147.3310 15.88777469  2782
Epoch: 2026-04-05T14:00Z
TLE epoch observation values (Epoch: 2026-04-05T14:00:03.000Z)
Latitude
-44.2537°
Longitude
5.59888°
Altitude
323.795 km
Speed
7.712 km/s
True Right ascension
03h 17m 59s
True Declination
-44° 04' 14"
Sunlit
Object was in daylight at epoch
Visualization orbit readout
Latitude
Unknown
Longitude
Unknown
Altitude
Unknown
Speed
Unknown
Apparent Right ascension
Unknown
Apparent Declination
Unknown
Sunlit
N/A
Visualization observer readout
Local Sidereal Time
01:00:39
Azimuth
Unknown
Elevation
Unknown
Doppler factor
Unknown
Orbital elements
Apogee altitude
303.664 km
Perigee altitude
301.494 km
Semi-major axis
6,680.716 km
Eccentricity
0.00016
Inclination
97.2817°
RAAN
236.609°
Arg. of periapsis
77.0853°
True anomaly
147.34104°
Mean anomaly
147.331°
Eccentric anomaly
147.33602°
Mean motion
3.97474 °/min
Orbital period
90.57 mins
BSTAR
-0.007952
Loading maneuver chart data...
Computing Atmospheric mass density...
Loading historical data...
Loading historical data...
Loading historical data...
Loading historical data...
Loading historical data...
Loading historical data...
Loading historical data...

Documentation

Showing up to 5 results
|